Location: Moulis
(42.9609°N, 1.0909°E)
Time: 10:52:25
(UTC+00:00)

SJ-12 - Visible Passes

Search period start: 15 March 2026 00:00
Search period end: 25 March 2026 00:00
Orbit: 513 x 524 km, 97.8° (Epoch: 14 March)

Date Brightness Start Highest point End Pass type
(mag) Time Alt. Az. Time Alt. Az. Time Alt. Az.
16 Mar 7.7 05:35:39 10° ENE 05:36:50 11° E 05:38:00 10° ESE visible
17 Mar 7.6 19:12:15 10° W 19:12:45 10° W 19:13:16 10° W visible
18 Mar 7.0 18:56:24 10° SW 18:58:38 15° W 19:00:52 10° NW visible
19 Mar 6.7 18:41:34 10° SSW 18:44:31 22° W 18:47:29 10° NW visible
24 Mar 7.2 19:07:05 10° WSW 19:08:32 12° W 19:10:00 10° WNW visible
